Time,TemperatureF,DewpointF,PressureIn,WindDirection,WindDirectionDegrees,WindSpeedMPH,WindSpeedGustMPH,Humidity,HourlyPrecipIn,Conditions,Clouds,dailyrainin,SoftwareType,DateUTC
2013-01-10 00:04:00,51.3,29.5,29.80,WSW,241,11.0,16.0,43,0.00,,,0.00,Wunderground v.1.13,2013-01-10 08:04:00,
2013-01-10 00:09:00,51.3,31.7,29.80,SW,234,10.0,11.0,47,0.00,,,0.00,Wunderground v.1.13,2013-01-10 08:09:00,
2013-01-10 00:15:00,50.8,32.8,29.80,WNW,285,8.0,9.0,50,0.00,,,0.00,Wunderground v.1.13,2013-01-10 08:15:00,
2013-01-10 00:21:00,49.9,33.9,29.80,WSW,246,6.0,6.0,54,0.00,,,0.00,Wunderground v.1.13,2013-01-10 08:21:00,
2013-01-10 00:27:00,49.5,34.0,29.80,SW,234,5.0,7.0,55,0.00,,,0.00,Wunderground v.1.13,2013-01-10 08:27:00,
2013-01-10 00:32:00,49.1,34.5,29.79,WNW,285,6.0,8.0,57,0.00,,,0.00,Wunderground v.1.13,2013-01-10 08:32:00,
2013-01-10 00:38:00,48.5,34.8,29.79,WSW,257,6.0,6.0,59,0.00,,,0.00,Wunderground v.1.13,2013-01-10 08:38:00,
2013-01-10 00:44:00,48.0,34.8,29.80,WSW,251,4.0,6.0,60,0.00,,,0.00,Wunderground v.1.13,2013-01-10 08:44:00,
2013-01-10 00:49:00,47.6,34.8,29.80,WSW,257,4.0,6.0,61,0.00,,,0.00,Wunderground v.1.13,2013-01-10 08:49:00,
2013-01-10 00:55:00,47.3,35.3,29.80,SW,233,4.0,10.0,63,0.00,,,0.00,Wunderground v.1.13,2013-01-10 08:55:00,
2013-01-10 01:00:00,47.0,35.8,29.80,WSW,250,5.0,7.0,65,0.00,,,0.00,Wunderground v.1.13,2013-01-10 09:00:00,
2013-01-10 01:07:00,46.8,36.4,29.80,West,280,5.0,6.0,67,0.00,,,0.00,Wunderground v.1.13,2013-01-10 09:07:00,
2013-01-10 01:12:00,46.7,36.3,29.80,WSW,251,6.0,6.0,67,0.00,,,0.00,Wunderground v.1.13,2013-01-10 09:12:00,
2013-01-10 01:18:00,46.4,36.8,29.80,SW,226,6.0,7.0,69,0.00,,,0.00,Wunderground v.1.13,2013-01-10 09:18:00,
2013-01-10 01:23:00,46.4,37.1,29.80,WSW,256,7.0,11.0,70,0.00,,,0.00,Wunderground v.1.13,2013-01-10 09:23:00,
2013-01-10 01:29:00,46.2,37.7,29.80,WSW,258,7.0,10.0,72,0.00,,,0.00,Wunderground v.1.13,2013-01-10 09:29:00,
2013-01-10 01:34:00,46.1,37.6,29.80,WSW,240,6.0,8.0,72,0.00,,,0.00,Wunderground v.1.13,2013-01-10 09:34:00,
2013-01-10 01:40:00,45.8,37.3,29.80,SW,232,6.0,10.0,72,0.00,,,0.00,Wunderground v.1.13,2013-01-10 09:40:00,
2013-01-10 01:46:00,45.5,37.3,29.81,SW,232,5.0,5.0,73,0.00,,,0.00,Wunderground v.1.13,2013-01-10 09:46:00,
2013-01-10 01:52:00,45.2,37.4,29.81,SW,227,4.0,4.0,74,0.00,,,0.00,Wunderground v.1.13,2013-01-10 09:52:00,
2013-01-10 01:58:00,44.9,37.8,29.81,SSW,200,4.0,5.0,76,0.00,,,0.00,Wunderground v.1.13,2013-01-10 09:58:00,
2013-01-10 02:04:00,44.5,37.7,29.80,SSW,210,4.0,11.0,77,0.00,,,0.00,Wunderground v.1.13,2013-01-10 10:04:00,
2013-01-10 02:09:00,44.3,37.5,29.80,SW,226,5.0,10.0,77,0.00,,,0.00,Wunderground v.1.13,2013-01-10 10:09:00,
2013-01-10 02:15:00,44.2,37.8,29.81,SSW,206,6.0,11.0,78,0.00,,,0.00,Wunderground v.1.13,2013-01-10 10:15:00,
2013-01-10 02:21:00,44.1,37.3,29.81,SW,226,5.0,5.0,77,0.00,,,0.00,Wunderground v.1.13,2013-01-10 10:21:00,
2013-01-10 02:27:00,43.9,36.8,29.81,SSW,208,3.0,4.0,76,0.00,,,0.00,Wunderground v.1.13,2013-01-10 10:27:00,
2013-01-10 02:33:00,43.6,36.5,29.81,WSW,241,3.0,3.0,76,0.00,,,0.00,Wunderground v.1.13,2013-01-10 10:33:00,
2013-01-10 02:39:00,43.5,36.1,29.81,South,179,2.0,6.0,75,0.00,,,0.00,Wunderground v.1.13,2013-01-10 10:39:00,
2013-01-10 02:45:00,43.6,35.5,29.80,SW,216,4.0,10.0,73,0.00,,,0.00,Wunderground v.1.13,2013-01-10 10:45:00,
2013-01-10 02:50:00,44.1,35.3,29.80,SSW,198,5.0,7.0,71,0.00,,,0.00,Wunderground v.1.13,2013-01-10 10:50:00,
2013-01-10 02:56:00,44.1,35.3,29.80,SW,236,5.0,5.0,71,0.00,,,0.00,Wunderground v.1.13,2013-01-10 10:56:00,
2013-01-10 03:02:00,43.8,35.7,29.80,SSW,199,5.0,16.0,73,0.00,,,0.00,Wunderground v.1.13,2013-01-10 11:02:00,
2013-01-10 03:08:00,44.2,35.0,29.80,SW,219,5.0,6.0,70,0.00,,,0.00,Wunderground v.1.13,2013-01-10 11:08:00,
2013-01-10 03:13:00,44.6,35.1,29.80,South,188,5.0,6.0,69,0.00,,,0.00,Wunderground v.1.13,2013-01-10 11:13:00,
2013-01-10 03:19:00,44.8,35.2,29.79,South,189,5.0,6.0,69,0.00,,,0.00,Wunderground v.1.13,2013-01-10 11:19:00,
2013-01-10 03:25:00,44.6,35.4,29.79,SSE,155,5.0,14.0,70,0.00,,,0.00,Wunderground v.1.13,2013-01-10 11:25:00,
2013-01-10 03:31:00,44.5,35.7,29.78,SSE,164,4.0,4.0,71,0.00,,,0.00,Wunderground v.1.13,2013-01-10 11:31:00,
2013-01-10 03:36:00,44.3,35.5,29.78,ESE,110,3.0,5.0,71,0.00,,,0.00,Wunderground v.1.13,2013-01-10 11:36:00,
2013-01-10 03:42:00,44.3,35.8,29.78,SSE,165,4.0,6.0,72,0.00,,,0.00,Wunderground v.1.13,2013-01-10 11:42:00,
2013-01-10 03:48:00,44.5,36.0,29.78,South,186,4.0,10.0,72,0.00,,,0.00,Wunderground v.1.13,2013-01-10 11:48:00,
2013-01-10 03:54:00,45.1,36.3,29.78,South,178,5.0,16.0,71,0.00,,,0.00,Wunderground v.1.13,2013-01-10 11:54:00,
2013-01-10 04:00:00,45.5,36.3,29.78,SW,232,8.0,20.0,70,0.00,,,0.00,Wunderground v.1.13,2013-01-10 12:00:00,
2013-01-10 04:06:00,44.2,32.8,29.78,SW,232,10.0,13.0,64,0.00,,,0.00,Wunderground v.1.13,2013-01-10 12:06:00,
2013-01-10 04:12:00,42.8,31.1,29.78,SW,229,12.0,13.0,63,0.00,,,0.00,Wunderground v.1.13,2013-01-10 12:12:00,
2013-01-10 04:18:00,41.5,30.6,29.80,WSW,251,13.0,17.0,65,0.00,,,0.00,Wunderground v.1.13,2013-01-10 12:18:00,
2013-01-10 04:24:00,40.8,29.9,29.80,WSW,254,14.0,16.0,65,0.00,,,0.00,Wunderground v.1.13,2013-01-10 12:24:00,
2013-01-10 04:30:00,40.5,29.7,29.81,WSW,251,12.0,16.0,65,0.00,,,0.00,Wunderground v.1.13,2013-01-10 12:30:00,
2013-01-10 04:36:00,40.3,29.1,29.81,West,260,12.0,12.0,64,0.00,,,0.00,Wunderground v.1.13,2013-01-10 12:36:00,
2013-01-10 04:41:00,40.2,29.0,29.81,SSW,208,11.0,11.0,64,0.00,,,0.00,Wunderground v.1.13,2013-01-10 12:41:00,
2013-01-10 04:47:00,40.2,28.2,29.81,WSW,248,11.0,11.0,62,0.00,,,0.00,Wunderground v.1.13,2013-01-10 12:47:00,
2013-01-10 04:53:00,40.2,27.8,29.81,SW,226,11.0,15.0,61,0.00,,,0.00,Wunderground v.1.13,2013-01-10 12:53:00,
2013-01-10 04:59:00,40.3,27.5,29.81,SW,232,10.0,12.0,60,0.00,,,0.00,Wunderground v.1.13,2013-01-10 12:59:00,
2013-01-10 05:05:00,40.3,27.1,29.81,SW,226,9.0,19.0,59,0.00,,,0.00,Wunderground v.1.13,2013-01-10 13:05:00,
2013-01-10 05:11:00,40.2,26.6,29.81,WSW,240,11.0,16.0,58,0.00,,,0.00,Wunderground v.1.13,2013-01-10 13:11:00,
2013-01-10 05:17:00,40.5,25.1,29.82,WSW,250,12.0,12.0,54,0.00,,,0.00,Wunderground v.1.13,2013-01-10 13:17:00,
2013-01-10 05:22:00,40.6,24.8,29.82,WSW,241,12.0,18.0,53,0.00,,,0.00,Wunderground v.1.13,2013-01-10 13:22:00,
2013-01-10 05:28:00,40.5,24.7,29.82,West,261,12.0,17.0,53,0.00,,,0.00,Wunderground v.1.13,2013-01-10 13:28:00,
2013-01-10 05:34:00,40.3,24.5,29.82,SW,232,13.0,14.0,53,0.00,,,0.00,Wunderground v.1.13,2013-01-10 13:34:00,
2013-01-10 05:40:00,40.2,24.9,29.82,SW,229,13.0,14.0,54,0.00,,,0.00,Wunderground v.1.13,2013-01-10 13:40:00,
2013-01-10 05:45:00,40.2,24.4,29.83,WSW,241,13.0,15.0,53,0.00,,,0.00,Wunderground v.1.13,2013-01-10 13:45:00,
2013-01-10 05:51:00,40.1,24.3,29.83,WSW,250,13.0,13.0,53,0.00,,,0.00,Wunderground v.1.13,2013-01-10 13:51:00,
2013-01-10 05:57:00,39.9,24.6,29.83,West,261,12.0,12.0,54,0.00,,,0.00,Wunderground v.1.13,2013-01-10 13:57:00,
2013-01-10 06:03:00,39.9,24.6,29.83,SW,217,11.0,14.0,54,0.00,,,0.00,Wunderground v.1.13,2013-01-10 14:03:00,
2013-01-10 06:08:00,39.9,24.6,29.83,SW,217,11.0,11.0,54,0.00,,,0.00,Wunderground v.1.13,2013-01-10 14:08:00,
2013-01-10 06:14:00,39.9,24.1,29.85,WNW,285,8.0,10.0,53,0.00,,,0.00,Wunderground v.1.13,2013-01-10 14:14:00,
2013-01-10 06:20:00,39.9,24.1,29.85,WNW,285,6.0,7.0,53,0.00,,,0.00,Wunderground v.1.13,2013-01-10 14:20:00,
2013-01-10 06:26:00,39.9,23.7,29.85,NW,305,6.0,6.0,52,0.00,,,0.00,Wunderground v.1.13,2013-01-10 14:26:00,
2013-01-10 06:32:00,39.8,23.6,29.85,SW,234,5.0,8.0,52,0.00,,,0.00,Wunderground v.1.13,2013-01-10 14:32:00,
2013-01-10 06:38:00,39.6,23.9,29.85,WSW,256,3.0,7.0,53,0.00,,,0.00,Wunderground v.1.13,2013-01-10 14:38:00,
2013-01-10 06:44:00,39.5,22.8,29.86,West,280,5.0,11.0,51,0.00,,,0.00,Wunderground v.1.13,2013-01-10 14:44:00,
2013-01-10 06:50:00,39.5,22.8,29.86,SW,234,7.0,10.0,51,0.00,,,0.00,Wunderground v.1.13,2013-01-10 14:50:00,
2013-01-10 06:56:00,39.3,23.1,29.86,SW,224,7.0,8.0,52,0.00,,,0.00,Wunderground v.1.13,2013-01-10 14:56:00,
2013-01-10 07:01:00,39.3,23.6,29.86,WSW,256,6.0,6.0,53,0.00,,,0.00,Wunderground v.1.13,2013-01-10 15:01:00,
2013-01-10 07:06:00,39.2,23.5,29.86,SW,233,5.0,12.0,53,0.00,,,0.00,Wunderground v.1.13,2013-01-10 15:06:00,
2013-01-10 07:12:00,39.1,23.4,29.86,WSW,237,6.0,6.0,53,0.00,,,0.00,Wunderground v.1.13,2013-01-10 15:12:00,
2013-01-10 07:18:00,38.8,23.1,29.87,SW,223,6.0,11.0,53,0.00,,,0.00,Wunderground v.1.13,2013-01-10 15:18:00,
2013-01-10 07:24:00,38.2,22.6,29.87,WSW,248,8.0,10.0,53,0.00,,,0.00,Wunderground v.1.13,2013-01-10 15:24:00,
2013-01-10 07:30:00,37.9,22.3,29.87,West,265,9.0,10.0,53,0.00,,,0.00,Wunderground v.1.13,2013-01-10 15:30:00,
2013-01-10 07:35:00,37.6,22.0,29.87,WNW,291,10.0,13.0,53,0.00,,,0.00,Wunderground v.1.13,2013-01-10 15:35:00,
2013-01-10 07:41:00,37.9,21.4,29.87,West,267,9.0,9.0,51,0.00,,,0.00,Wunderground v.1.13,2013-01-10 15:41:00,
2013-01-10 07:47:00,38.3,22.6,29.88,West,261,9.0,13.0,53,0.00,,,0.00,Wunderground v.1.13,2013-01-10 15:47:00,
2013-01-10 07:53:00,38.5,22.4,29.88,WNW,302,10.0,10.0,52,0.00,,,0.00,Wunderground v.1.13,2013-01-10 15:53:00,
2013-01-10 07:59:00,38.6,22.5,29.88,West,272,8.0,12.0,52,0.00,,,0.00,Wunderground v.1.13,2013-01-10 15:59:00,
2013-01-10 08:05:00,39.1,22.0,29.88,West,264,8.0,13.0,50,0.00,,,0.00,Wunderground v.1.13,2013-01-10 16:05:00,
2013-01-10 08:10:00,39.3,21.7,29.88,SW,216,10.0,14.0,49,0.00,,,0.00,Wunderground v.1.13,2013-01-10 16:10:00,
2013-01-10 08:16:00,39.5,21.4,29.87,West,277,14.0,14.0,48,0.00,,,0.00,Wunderground v.1.13,2013-01-10 16:16:00,
2013-01-10 08:22:00,39.9,21.8,29.87,WSW,246,14.0,16.0,48,0.00,,,0.00,Wunderground v.1.13,2013-01-10 16:22:00,
2013-01-10 08:27:00,39.9,20.3,29.87,West,267,13.0,18.0,45,0.00,,,0.00,Wunderground v.1.13,2013-01-10 16:27:00,
2013-01-10 08:33:00,40.1,19.4,29.88,WSW,256,14.0,21.0,43,0.00,,,0.00,Wunderground v.1.13,2013-01-10 16:33:00,
2013-01-10 08:39:00,40.2,21.6,29.88,SW,224,14.0,20.0,47,0.00,,,0.00,Wunderground v.1.13,2013-01-10 16:39:00,
2013-01-10 08:45:00,39.9,19.7,29.88,SW,233,14.0,17.0,44,0.00,,,0.00,Wunderground v.1.13,2013-01-10 16:45:00,
2013-01-10 08:51:00,40.2,20.0,29.88,WSW,251,13.0,14.0,44,0.00,,,0.00,Wunderground v.1.13,2013-01-10 16:51:00,
2013-01-10 08:57:00,39.9,20.8,29.88,WSW,254,15.0,16.0,46,0.00,,,0.00,Wunderground v.1.13,2013-01-10 16:57:00,
2013-01-10 09:03:00,39.9,20.3,29.88,WSW,247,16.0,24.0,45,0.00,,,0.00,Wunderground v.1.13,2013-01-10 17:03:00,
2013-01-10 09:08:00,40.2,20.0,29.88,WSW,243,13.0,15.0,44,0.00,,,0.00,Wunderground v.1.13,2013-01-10 17:08:00,
2013-01-10 09:14:00,40.8,20.5,29.88,WSW,239,12.0,18.0,44,0.00,,,0.00,Wunderground v.1.13,2013-01-10 17:14:00,
2013-01-10 09:20:00,40.9,21.2,29.88,SW,229,13.0,16.0,45,0.00,,,0.00,Wunderground v.1.13,2013-01-10 17:20:00,
2013-01-10 09:26:00,41.1,19.7,29.88,WNW,292,12.0,12.0,42,0.00,,,0.00,Wunderground v.1.13,2013-01-10 17:26:00,
2013-01-10 09:32:00,41.1,20.8,29.88,WSW,248,12.0,13.0,44,0.00,,,0.00,Wunderground v.1.13,2013-01-10 17:32:00,
2013-01-10 09:38:00,41.3,20.5,29.88,West,281,11.0,12.0,43,0.00,,,0.00,Wunderground v.1.13,2013-01-10 17:38:00,
2013-01-10 09:44:00,41.8,20.9,29.88,WSW,248,11.0,19.0,43,0.00,,,0.00,Wunderground v.1.13,2013-01-10 17:44:00,
2013-01-10 09:50:00,41.6,20.7,29.88,SW,227,13.0,16.0,43,0.00,,,0.00,Wunderground v.1.13,2013-01-10 17:50:00,
2013-01-10 09:56:00,41.6,21.3,29.88,West,264,14.0,14.0,44,0.00,,,0.00,Wunderground v.1.13,2013-01-10 17:56:00,
2013-01-10 10:01:00,41.6,21.3,29.88,WSW,256,14.0,14.0,44,0.00,,,0.00,Wunderground v.1.13,2013-01-10 18:01:00,
2013-01-10 10:06:00,42.1,21.2,29.88,West,260,11.0,11.0,43,0.00,,,0.00,Wunderground v.1.13,2013-01-10 18:06:00,
2013-01-10 10:12:00,42.5,21.0,29.88,WSW,256,8.0,11.0,42,0.00,,,0.00,Wunderground v.1.13,2013-01-10 18:12:00,
2013-01-10 10:17:00,42.8,18.9,29.88,WNW,299,8.0,8.0,38,0.00,,,0.00,Wunderground v.1.13,2013-01-10 18:17:00,
2013-01-10 10:23:00,43.5,18.9,29.88,WNW,295,4.0,5.0,37,0.00,,,0.00,Wunderground v.1.13,2013-01-10 18:23:00,
2013-01-10 10:29:00,43.9,20.5,29.86,West,267,4.0,12.0,39,0.00,,,0.00,Wunderground v.1.13,2013-01-10 18:29:00,
2013-01-10 10:35:00,44.1,20.7,29.86,WSW,248,9.0,17.0,39,0.00,,,0.00,Wunderground v.1.13,2013-01-10 18:35:00,
2013-01-10 10:41:00,44.1,20.1,29.86,West,260,12.0,18.0,38,0.00,,,0.00,Wunderground v.1.13,2013-01-10 18:41:00,
2013-01-10 10:47:00,43.8,18.5,29.86,WSW,251,12.0,12.0,36,0.00,,,0.00,Wunderground v.1.13,2013-01-10 18:47:00,
2013-01-10 10:53:00,43.9,19.3,29.86,WSW,241,10.0,12.0,37,0.00,,,0.00,Wunderground v.1.13,2013-01-10 18:53:00,
2013-01-10 10:59:00,43.8,19.8,29.86,WSW,241,11.0,15.0,38,0.00,,,0.00,Wunderground v.1.13,2013-01-10 18:59:00,
2013-01-10 11:05:00,44.1,19.5,29.86,SSE,160,11.0,25.0,37,0.00,,,0.00,Wunderground v.1.13,2013-01-10 19:05:00,
2013-01-10 11:10:00,44.2,19.5,29.86,SW,215,9.0,17.0,37,0.00,,,0.00,Wunderground v.1.13,2013-01-10 19:10:00,
2013-01-10 11:16:00,44.3,19.6,29.85,WSW,243,10.0,10.0,37,0.00,,,0.00,Wunderground v.1.13,2013-01-10 19:16:00,
2013-01-10 11:22:00,44.2,19.5,29.85,WNW,285,13.0,14.0,37,0.00,,,0.00,Wunderground v.1.13,2013-01-10 19:22:00,
2013-01-10 11:28:00,43.8,19.2,29.85,WSW,254,14.0,15.0,37,0.00,,,0.00,Wunderground v.1.13,2013-01-10 19:28:00,
2013-01-10 11:34:00,43.9,19.3,29.85,SW,223,13.0,14.0,37,0.00,,,0.00,Wunderground v.1.13,2013-01-10 19:34:00,
2013-01-10 11:40:00,44.3,18.3,29.85,WSW,243,9.0,13.0,35,0.00,,,0.00,Wunderground v.1.13,2013-01-10 19:40:00,
2013-01-10 11:46:00,44.6,18.6,29.84,West,261,10.0,29.0,35,0.00,,,0.00,Wunderground v.1.13,2013-01-10 19:46:00,
2013-01-10 11:52:00,43.9,18.6,29.84,WNW,295,15.0,15.0,36,0.00,,,0.00,Wunderground v.1.13,2013-01-10 19:52:00,
2013-01-10 11:58:00,43.8,18.5,29.84,West,267,16.0,17.0,36,0.00,,,0.00,Wunderground v.1.13,2013-01-10 19:58:00,
2013-01-10 12:04:00,43.9,18.0,29.84,West,261,14.0,21.0,35,0.00,,,0.00,Wunderground v.1.13,2013-01-10 20:04:00,
2013-01-10 12:09:00,43.8,19.2,29.84,WSW,240,15.0,19.0,37,0.00,,,0.00,Wunderground v.1.13,2013-01-10 20:09:00,
2013-01-10 12:15:00,44.1,19.5,29.84,SSW,203,14.0,16.0,37,0.00,,,0.00,Wunderground v.1.13,2013-01-10 20:15:00,
2013-01-10 12:20:00,43.9,19.9,29.84,WSW,246,14.0,21.0,38,0.00,,,0.00,Wunderground v.1.13,2013-01-10 20:20:00,
2013-01-10 12:26:00,43.8,19.2,29.84,WNW,284,15.0,15.0,37,0.00,,,0.00,Wunderground v.1.13,2013-01-10 20:26:00,
2013-01-10 12:32:00,44.1,18.2,29.84,SW,227,13.0,19.0,35,0.00,,,0.00,Wunderground v.1.13,2013-01-10 20:32:00,
2013-01-10 12:37:00,44.8,18.1,29.84,NW,311,11.0,12.0,34,0.00,,,0.00,Wunderground v.1.13,2013-01-10 20:37:00,
2013-01-10 12:42:00,44.8,18.8,29.84,West,263,11.0,16.0,35,0.00,,,0.00,Wunderground v.1.13,2013-01-10 20:42:00,
2013-01-10 12:48:00,44.1,18.8,29.83,West,270,14.0,20.0,36,0.00,,,0.00,Wunderground v.1.13,2013-01-10 20:48:00,
2013-01-10 12:54:00,43.6,19.0,29.83,WSW,248,16.0,25.0,37,0.00,,,0.00,Wunderground v.1.13,2013-01-10 20:54:00,
2013-01-10 13:00:00,43.2,18.6,29.84,WNW,285,17.0,21.0,37,0.00,,,0.00,Wunderground v.1.13,2013-01-10 21:00:00,
2013-01-10 13:05:00,42.9,19.0,29.84,SSW,212,16.0,29.0,38,0.00,,,0.00,Wunderground v.1.13,2013-01-10 21:05:00,
2013-01-10 13:11:00,42.6,19.3,29.84,West,263,17.0,17.0,39,0.00,,,0.00,Wunderground v.1.13,2013-01-10 21:11:00,
2013-01-10 13:17:00,42.3,18.5,29.85,WSW,237,17.0,22.0,38,0.00,,,0.00,Wunderground v.1.13,2013-01-10 21:17:00,
2013-01-10 13:23:00,42.5,17.4,29.85,WSW,243,15.0,16.0,36,0.00,,,0.00,Wunderground v.1.13,2013-01-10 21:23:00,
2013-01-10 13:29:00,42.8,18.3,29.85,WNW,288,14.0,14.0,37,0.00,,,0.00,Wunderground v.1.13,2013-01-10 21:29:00,
2013-01-10 13:35:00,42.8,18.3,29.85,WSW,246,14.0,17.0,37,0.00,,,0.00,Wunderground v.1.13,2013-01-10 21:35:00,
2013-01-10 13:41:00,42.5,19.3,29.85,West,275,14.0,14.0,39,0.00,,,0.00,Wunderground v.1.13,2013-01-10 21:41:00,
2013-01-10 13:46:00,42.6,19.3,29.85,WNW,282,13.0,17.0,39,0.00,,,0.00,Wunderground v.1.13,2013-01-10 21:46:00,
2013-01-10 13:52:00,42.6,18.7,29.85,SW,217,13.0,18.0,38,0.00,,,0.00,Wunderground v.1.13,2013-01-10 21:52:00,
2013-01-10 13:59:00,42.3,20.8,29.86,West,280,14.0,19.0,42,0.00,,,0.00,Wunderground v.1.13,2013-01-10 21:59:00,
2013-01-10 14:04:00,42.1,20.6,29.86,WNW,285,14.0,29.0,42,0.00,,,0.00,Wunderground v.1.13,2013-01-10 22:04:00,
2013-01-10 14:10:00,41.8,20.9,29.86,WSW,243,15.0,17.0,43,0.00,,,0.00,Wunderground v.1.13,2013-01-10 22:10:00,
2013-01-10 14:16:00,41.5,20.6,29.86,West,281,13.0,17.0,43,0.00,,,0.00,Wunderground v.1.13,2013-01-10 22:16:00,
2013-01-10 14:22:00,41.3,21.0,29.86,WSW,243,13.0,14.0,44,0.00,,,0.00,Wunderground v.1.13,2013-01-10 22:22:00,
2013-01-10 14:28:00,41.3,21.5,29.86,SW,224,14.0,14.0,45,0.00,,,0.00,Wunderground v.1.13,2013-01-10 22:28:00,
2013-01-10 14:34:00,41.3,20.5,29.87,WSW,240,14.0,14.0,43,0.00,,,0.00,Wunderground v.1.13,2013-01-10 22:34:00,
2013-01-10 14:39:00,41.5,20.6,29.87,WSW,258,14.0,19.0,43,0.00,,,0.00,Wunderground v.1.13,2013-01-10 22:39:00,
2013-01-10 14:45:00,41.8,20.9,29.87,West,281,12.0,18.0,43,0.00,,,0.00,Wunderground v.1.13,2013-01-10 22:45:00,
2013-01-10 14:51:00,41.8,20.4,29.87,WSW,246,12.0,17.0,42,0.00,,,0.00,Wunderground v.1.13,2013-01-10 22:51:00,
2013-01-10 14:57:00,41.6,19.6,29.87,SW,233,14.0,16.0,41,0.00,,,0.00,Wunderground v.1.13,2013-01-10 22:57:00,
2013-01-10 15:03:00,41.5,19.5,29.87,SW,223,12.0,27.0,41,0.00,,,0.00,Wunderground v.1.13,2013-01-10 23:03:00,
2013-01-10 15:09:00,41.5,19.5,29.87,West,264,13.0,14.0,41,0.00,,,0.00,Wunderground v.1.13,2013-01-10 23:09:00,
2013-01-10 15:15:00,41.5,19.5,29.85,West,264,13.0,15.0,41,0.00,,,0.00,Wunderground v.1.13,2013-01-10 23:15:00,
2013-01-10 15:20:00,41.2,19.8,29.85,WSW,239,13.0,17.0,42,0.00,,,0.00,Wunderground v.1.13,2013-01-10 23:20:00,
2013-01-10 15:26:00,41.1,19.7,29.85,SW,216,14.0,17.0,42,0.00,,,0.00,Wunderground v.1.13,2013-01-10 23:26:00,
2013-01-10 15:32:00,41.2,20.4,29.87,SW,236,14.0,21.0,43,0.00,,,0.00,Wunderground v.1.13,2013-01-10 23:32:00,
2013-01-10 15:37:00,41.1,20.8,29.87,WSW,241,15.0,15.0,44,0.00,,,0.00,Wunderground v.1.13,2013-01-10 23:37:00,
2013-01-10 15:43:00,40.9,20.6,29.87,SW,236,14.0,18.0,44,0.00,,,0.00,Wunderground v.1.13,2013-01-10 23:43:00,
2013-01-10 15:49:00,40.9,20.6,29.87,WSW,246,13.0,17.0,44,0.00,,,0.00,Wunderground v.1.13,2013-01-10 23:49:00,
2013-01-10 15:55:00,40.6,20.4,29.87,West,272,14.0,25.0,44,0.00,,,0.00,Wunderground v.1.13,2013-01-10 23:55:00,
2013-01-10 16:01:00,40.5,20.3,29.87,WSW,243,15.0,15.0,44,0.00,,,0.00,Wunderground v.1.13,2013-01-11 00:01:00,
2013-01-10 16:06:00,40.3,19.5,29.87,SW,217,15.0,15.0,43,0.00,,,0.00,Wunderground v.1.13,2013-01-11 00:06:00,
2013-01-10 16:12:00,40.1,19.4,29.87,West,264,14.0,19.0,43,0.00,,,0.00,Wunderground v.1.13,2013-01-11 00:12:00,
2013-01-10 16:18:00,39.2,19.6,29.88,SSW,202,15.0,20.0,45,0.00,,,0.00,Wunderground v.1.13,2013-01-11 00:18:00,
2013-01-10 16:24:00,38.6,19.6,29.88,West,261,16.0,25.0,46,0.00,,,0.00,Wunderground v.1.13,2013-01-11 00:24:00,
2013-01-10 16:30:00,38.2,19.7,29.89,SW,227,15.0,20.0,47,0.00,,,0.00,Wunderground v.1.13,2013-01-11 00:30:00,
2013-01-10 16:36:00,37.6,22.4,29.89,WSW,244,15.0,21.0,54,0.00,,,0.00,Wunderground v.1.13,2013-01-11 00:36:00,
2013-01-10 16:42:00,36.6,24.4,29.89,SSW,208,13.0,19.0,61,0.00,,,0.00,Wunderground v.1.13,2013-01-11 00:42:00,
2013-01-10 16:48:00,35.5,24.9,29.90,WSW,253,14.0,14.0,65,0.00,,,0.00,Wunderground v.1.13,2013-01-11 00:48:00,
2013-01-10 16:54:00,35.0,24.8,29.90,SW,232,12.0,13.0,66,0.00,,,0.00,Wunderground v.1.13,2013-01-11 00:54:00,
2013-01-10 17:00:00,35.0,23.3,29.91,WNW,285,9.0,12.0,62,0.00,,,0.00,Wunderground v.1.13,2013-01-11 01:00:00,
2013-01-10 17:05:00,35.2,23.1,29.91,WSW,251,7.0,28.0,61,0.00,,,0.00,Wunderground v.1.13,2013-01-11 01:05:00,
2013-01-10 17:11:00,35.3,21.6,29.91,WNW,284,7.0,12.0,57,0.00,,,0.00,Wunderground v.1.13,2013-01-11 01:11:00,
2013-01-10 17:17:00,35.8,19.9,29.90,NW,304,7.0,7.0,52,0.00,,,0.00,Wunderground v.1.13,2013-01-11 01:17:00,
2013-01-10 17:23:00,36.6,19.7,29.90,WSW,256,10.0,15.0,50,0.00,,,0.00,Wunderground v.1.13,2013-01-11 01:23:00,
2013-01-10 17:28:00,37.2,18.8,29.90,West,267,12.0,18.0,47,0.00,,,0.00,Wunderground v.1.13,2013-01-11 01:28:00,
2013-01-10 17:34:00,37.6,19.2,29.91,WSW,244,12.0,14.0,47,0.00,,,0.00,Wunderground v.1.13,2013-01-11 01:34:00,
2013-01-10 17:39:00,37.6,19.2,29.91,West,274,10.0,12.0,47,0.00,,,0.00,Wunderground v.1.13,2013-01-11 01:39:00,
2013-01-10 17:45:00,37.5,19.1,29.91,SW,232,9.0,11.0,47,0.00,,,0.00,Wunderground v.1.13,2013-01-11 01:45:00,
2013-01-10 17:50:00,37.5,19.6,29.91,WNW,282,9.0,17.0,48,0.00,,,0.00,Wunderground v.1.13,2013-01-11 01:50:00,
2013-01-10 17:56:00,37.2,22.5,29.91,West,263,9.0,9.0,55,0.00,,,0.00,Wunderground v.1.13,2013-01-11 01:56:00,
2013-01-10 18:01:00,36.6,24.4,29.92,WSW,243,9.0,12.0,61,0.00,,,0.00,Wunderground v.1.13,2013-01-11 02:01:00,
2013-01-10 18:06:00,36.0,24.6,29.92,South,186,11.0,12.0,63,0.00,,,0.00,Wunderground v.1.13,2013-01-11 02:06:00,
2013-01-10 18:12:00,35.8,24.0,29.92,West,267,11.0,12.0,62,0.00,,,0.00,Wunderground v.1.13,2013-01-11 02:12:00,
2013-01-10 18:18:00,35.3,24.7,29.92,West,272,11.0,12.0,65,0.00,,,0.00,Wunderground v.1.13,2013-01-11 02:18:00,
2013-01-10 18:24:00,34.9,24.3,29.92,WSW,244,8.0,13.0,65,0.00,,,0.00,Wunderground v.1.13,2013-01-11 02:24:00,
2013-01-10 18:30:00,34.7,24.1,29.93,SW,234,9.0,14.0,65,0.00,,,0.00,Wunderground v.1.13,2013-01-11 02:30:00,
2013-01-10 18:35:00,34.7,23.8,29.93,WSW,239,11.0,13.0,64,0.00,,,0.00,Wunderground v.1.13,2013-01-11 02:35:00,
2013-01-10 18:40:00,34.6,24.8,29.93,WSW,243,12.0,16.0,67,0.00,,,0.00,Wunderground v.1.13,2013-01-11 02:40:00,
2013-01-10 18:46:00,34.0,26.6,29.91,WSW,237,14.0,17.0,74,0.00,,,0.00,Wunderground v.1.13,2013-01-11 02:46:00,
2013-01-10 18:52:00,33.4,26.6,29.91,West,263,15.0,19.0,76,0.00,,,0.00,Wunderground v.1.13,2013-01-11 02:52:00,
2013-01-10 18:57:00,33.2,26.1,29.91,West,263,14.0,17.0,75,0.00,,,0.00,Wunderground v.1.13,2013-01-11 02:57:00,
2013-01-10 19:03:00,33.2,25.8,29.90,WSW,257,13.0,19.0,74,0.00,,,0.00,Wunderground v.1.13,2013-01-11 03:03:00,
2013-01-10 19:08:00,33.4,25.0,29.90,SW,232,11.0,16.0,71,0.00,,,0.00,Wunderground v.1.13,2013-01-11 03:08:00,
2013-01-10 19:14:00,33.7,24.3,29.91,West,271,10.0,10.0,68,0.00,,,0.00,Wunderground v.1.13,2013-01-11 03:14:00,
2013-01-10 19:20:00,34.4,21.5,29.91,West,268,11.0,16.0,59,0.00,,,0.00,Wunderground v.1.13,2013-01-11 03:20:00,
2013-01-10 19:26:00,35.3,21.2,29.91,West,274,14.0,14.0,56,0.00,,,0.00,Wunderground v.1.13,2013-01-11 03:26:00,
2013-01-10 19:32:00,35.6,21.9,29.92,WSW,257,13.0,14.0,57,0.00,,,0.00,Wunderground v.1.13,2013-01-11 03:32:00,
2013-01-10 19:38:00,35.5,22.2,29.92,SW,227,10.0,11.0,58,0.00,,,0.00,Wunderground v.1.13,2013-01-11 03:38:00,
2013-01-10 19:44:00,35.3,22.4,29.93,SW,230,10.0,12.0,59,0.00,,,0.00,Wunderground v.1.13,2013-01-11 03:44:00,
2013-01-10 19:50:00,35.0,22.9,29.93,WSW,240,11.0,16.0,61,0.00,,,0.00,Wunderground v.1.13,2013-01-11 03:50:00,
2013-01-10 19:56:00,34.3,23.4,29.93,West,260,10.0,10.0,64,0.00,,,0.00,Wunderground v.1.13,2013-01-11 03:56:00,
2013-01-10 20:02:00,34.4,20.7,29.94,SSW,209,10.0,25.0,57,0.00,,,0.00,Wunderground v.1.13,2013-01-11 04:02:00,
2013-01-10 20:07:00,34.9,19.5,29.94,WSW,244,11.0,16.0,53,0.00,,,0.00,Wunderground v.1.13,2013-01-11 04:07:00,
2013-01-10 20:13:00,35.8,19.0,29.94,WSW,240,14.0,14.0,50,0.00,,,0.00,Wunderground v.1.13,2013-01-11 04:13:00,
2013-01-10 20:18:00,36.3,17.5,29.93,WSW,256,14.0,20.0,46,0.00,,,0.00,Wunderground v.1.13,2013-01-11 04:18:00,
2013-01-10 20:24:00,36.6,17.7,29.93,WNW,284,14.0,24.0,46,0.00,,,0.00,Wunderground v.1.13,2013-01-11 04:24:00,
2013-01-10 20:30:00,36.8,16.9,29.93,NW,312,11.0,13.0,44,0.00,,,0.00,Wunderground v.1.13,2013-01-11 04:30:00,
2013-01-10 20:35:00,37.0,16.5,29.93,WSW,258,11.0,24.0,43,0.00,,,0.00,Wunderground v.1.13,2013-01-11 04:35:00,
2013-01-10 20:41:00,37.0,17.1,29.93,NW,304,11.0,11.0,44,0.00,,,0.00,Wunderground v.1.13,2013-01-11 04:41:00,
2013-01-10 20:47:00,37.0,17.6,29.93,West,277,8.0,9.0,45,0.00,,,0.00,Wunderground v.1.13,2013-01-11 04:47:00,
2013-01-10 20:53:00,36.9,17.0,29.93,WSW,257,9.0,9.0,44,0.00,,,0.00,Wunderground v.1.13,2013-01-11 04:53:00,
2013-01-10 20:59:00,36.9,16.5,29.94,SW,226,11.0,20.0,43,0.00,,,0.00,Wunderground v.1.13,2013-01-11 04:59:00,
2013-01-10 21:01:00,36.9,17.0,29.94,SW,233,11.0,11.0,44,0.00,,,0.00,Wunderground v.1.13,2013-01-11 05:01:00,
2013-01-10 21:02:00,36.9,17.0,29.94,WNW,282,10.0,20.0,44,0.00,,,0.00,Wunderground v.1.13,2013-01-11 05:02:00,
2013-01-10 21:03:00,36.8,16.9,29.94,West,275,10.0,20.0,44,0.00,,,0.00,Wunderground v.1.13,2013-01-11 05:03:00,
2013-01-10 21:07:00,36.8,16.9,29.94,WSW,247,10.0,18.0,44,0.00,,,0.00,Wunderground v.1.13,2013-01-11 05:07:00,
2013-01-10 21:12:00,36.8,16.4,29.94,WSW,257,11.0,16.0,43,0.00,,,0.00,Wunderground v.1.13,2013-01-11 05:12:00,
2013-01-10 21:18:00,36.8,16.4,29.94,SW,232,11.0,19.0,43,0.00,,,0.00,Wunderground v.1.13,2013-01-11 05:18:00,
2013-01-10 21:24:00,37.0,16.0,29.94,West,267,12.0,18.0,42,0.00,,,0.00,Wunderground v.1.13,2013-01-11 05:24:00,
2013-01-10 21:30:00,37.2,16.7,29.95,WSW,246,13.0,19.0,43,0.00,,,0.00,Wunderground v.1.13,2013-01-11 05:30:00,
2013-01-10 21:36:00,37.0,16.0,29.95,WSW,253,12.0,13.0,42,0.00,,,0.00,Wunderground v.1.13,2013-01-11 05:36:00,
2013-01-10 21:42:00,37.2,16.2,29.95,West,274,12.0,12.0,42,0.00,,,0.00,Wunderground v.1.13,2013-01-11 05:42:00,
2013-01-10 21:48:00,37.0,14.9,29.96,SW,224,9.0,11.0,40,0.00,,,0.00,Wunderground v.1.13,2013-01-11 05:48:00,
2013-01-10 21:54:00,37.2,15.1,29.96,West,265,9.0,18.0,40,0.00,,,0.00,Wunderground v.1.13,2013-01-11 05:54:00,
2013-01-10 22:00:00,37.2,14.5,29.96,WSW,254,11.0,18.0,39,0.00,,,0.00,Wunderground v.1.13,2013-01-11 06:00:00,
2013-01-10 22:06:00,37.0,14.3,29.96,WSW,247,9.0,9.0,39,0.00,,,0.00,Wunderground v.1.13,2013-01-11 06:06:00,
2013-01-10 22:12:00,36.9,14.8,29.96,WSW,247,7.0,11.0,40,0.00,,,0.00,Wunderground v.1.13,2013-01-11 06:12:00,
2013-01-10 22:18:00,37.0,14.9,29.97,WSW,256,10.0,10.0,40,0.00,,,0.00,Wunderground v.1.13,2013-01-11 06:18:00,
2013-01-10 22:24:00,36.8,15.8,29.97,SW,215,7.0,9.0,42,0.00,,,0.00,Wunderground v.1.13,2013-01-11 06:24:00,
2013-01-10 22:30:00,36.3,15.4,29.97,SW,234,7.0,18.0,42,0.00,,,0.00,Wunderground v.1.13,2013-01-11 06:30:00,
2013-01-10 22:36:00,36.6,16.2,29.97,SW,219,7.0,7.0,43,0.00,,,0.00,Wunderground v.1.13,2013-01-11 06:36:00,
2013-01-10 22:42:00,36.3,15.9,29.97,SW,224,4.0,9.0,43,0.00,,,0.00,Wunderground v.1.13,2013-01-11 06:42:00,
2013-01-10 22:48:00,36.5,15.0,29.96,SSW,206,6.0,20.0,41,0.00,,,0.00,Wunderground v.1.13,2013-01-11 06:48:00,
2013-01-10 22:54:00,36.5,15.0,29.96,SSW,203,9.0,11.0,41,0.00,,,0.00,Wunderground v.1.13,2013-01-11 06:54:00,
2013-01-10 23:00:00,36.8,15.3,29.96,West,277,11.0,15.0,41,0.00,,,0.00,Wunderground v.1.13,2013-01-11 07:00:00,
2013-01-10 23:06:00,37.0,15.5,29.96,NW,315,13.0,13.0,41,0.00,,,0.00,Wunderground v.1.13,2013-01-11 07:06:00,
2013-01-10 23:12:00,37.2,15.6,29.96,West,275,16.0,27.0,41,0.00,,,0.00,Wunderground v.1.13,2013-01-11 07:12:00,
2013-01-10 23:18:00,37.2,15.6,29.94,NW,309,19.0,26.0,41,0.00,,,0.00,Wunderground v.1.13,2013-01-11 07:18:00,
2013-01-10 23:24:00,37.2,15.6,29.94,WNW,295,20.0,31.0,41,0.00,,,0.00,Wunderground v.1.13,2013-01-11 07:24:00,
2013-01-10 23:30:00,37.0,16.5,29.99,SSW,208,17.0,20.0,43,0.00,,,0.00,Wunderground v.1.13,2013-01-11 07:30:00,
2013-01-10 23:36:00,36.8,16.4,29.99,NNW,330,12.0,14.0,43,0.00,,,0.00,Wunderground v.1.13,2013-01-11 07:36:00,
2013-01-10 23:42:00,36.5,16.6,29.99,WNW,287,11.0,17.0,44,0.00,,,0.00,Wunderground v.1.13,2013-01-11 07:42:00,
2013-01-10 23:48:00,36.3,16.4,29.99,WNW,295,11.0,20.0,44,0.00,,,0.00,Wunderground v.1.13,2013-01-11 07:48:00,
2013-01-10 23:54:00,36.5,16.6,29.99,NW,316,12.0,25.0,44,0.00,,,0.00,Wunderground v.1.13,2013-01-11 07:54:00,